Houma, LA

8:30 PM CDT on September 24, 2017 (GMT -0500)
Houma-terrebonne

Weather History for KHUM - March, 2013

Change the Weather History Date:

Sunday, March 10, 2013

  Actual Average Record
Temperature  
Mean Temperature 68 °F -  
Max Temperature 73 °F 71 °F 86 °F (2007)
Min Temperature 64 °F 51 °F 26 °F (1932)
Cooling Degree Days 4    
Growing Degree Days 18 (Base 50)    
Moisture  
Dew Point 65 °F    
Average Humidity 88    
Maximum Humidity 95    
Minimum Humidity 73    
Precipitation  
Precipitation 0.00 in - - ()
Sea Level Pressure  
Sea Level Pressure 29.91 in    
Wind  
Wind Speed 11 mph (SE)    
Max Wind Speed 22 mph    
Max Gust Speed 18 mph    
Visibility 7 miles    
Events      
Averages and records for this station are not official NWS values.
T = Trace of Precipitation, MM = Missing Value Source: NWS Daily Summary

Daily Weather History Graph

Daily Weather History Graph

Search for Another Location

Airport or City:

Trip Planner

Search our weather history database for the weather conditions in past years. The results will help you decide how hot, cold, wet, or windy it might be!

Date:

Astronomy

Mar. 10, 2013 Rise Set
Actual Time 7:17 AM CDT 7:08 PM CDT
Civil Twilight 6:54 AM CDT 7:31 PM CDT
Nautical Twilight 6:26 AM CDT 7:59 PM CDT
Astronomical Twilight 5:58 AM CDT 8:27 PM CDT
Moon 6:15 AM CDT (3/10) 6:16 PM CDT (3/10)
Length of Visible Light 12h 37m
Length of Day
11h 50m
Waning Crescent, 2% of the Moon is Illuminated
Mar 10
Waning Crescent
Mar 11
New
Mar 19
First Quarter
Mar 27
Full
Apr 2
Last Quarter

Hourly Weather History & Observations

Time (CDT) Temp. Dew Point Humidity Pressure Visibility Wind Dir Wind Speed Gust Speed Precip Events Conditions
12:15 AM 65.7 °F 62.1 °F 88% 29.94 in 7.0 mi ESE 9.2 mph 16.1 mph N/A   Overcast
12:35 AM 66.2 °F 62.2 °F 87% 29.95 in 10.0 mi SE 9.2 mph - N/A   Overcast
12:55 AM 65.8 °F 62.1 °F 88% 29.94 in 7.0 mi ESE 9.2 mph - N/A   Overcast
1:15 AM 65.5 °F 62.2 °F 89% 29.93 in 7.0 mi SE 10.4 mph - N/A   Overcast
1:35 AM 65.5 °F 62.4 °F 90% 29.92 in 7.0 mi ESE 10.4 mph - N/A   Overcast
1:55 AM 65.3 °F 62.4 °F 90% 29.92 in 7.0 mi ESE 10.4 mph - N/A   Overcast
3:35 AM 64.9 °F 62.6 °F 92% 29.91 in 7.0 mi ESE 8.1 mph - N/A   Overcast
4:15 AM 64.8 °F 62.6 °F 93% 29.88 in 7.0 mi SE 10.4 mph 18.4 mph N/A   Scattered Clouds
4:35 AM 64.6 °F 62.4 °F 93% 29.89 in 7.0 mi SE 10.4 mph - N/A   Clear
4:55 AM 65.3 °F 62.8 °F 92% 29.89 in 7.0 mi ESE 9.2 mph - N/A   Mostly Cloudy
5:15 AM 65.8 °F 63.0 °F 90% 29.90 in 7.0 mi ESE 8.1 mph - N/A   Overcast
5:35 AM 65.7 °F 63.0 °F 91% 29.90 in 7.0 mi ESE 8.1 mph - N/A   Overcast
5:55 AM 66.2 °F 63.1 °F 90% 29.90 in 7.0 mi ESE 9.2 mph 16.1 mph N/A   Overcast
6:55 AM 66.2 °F 64.4 °F 94% 29.91 in 7.0 mi SE 13.8 mph - N/A   Scattered Clouds
7:55 AM 66.2 °F 64.4 °F 94% 29.91 in 7.0 mi SE 13.8 mph - N/A   Scattered Clouds
8:50 AM 69.8 °F 64.4 °F 83% 29.91 in 7.0 mi SE 20.7 mph - N/A   Scattered Clouds
9:50 AM 69.8 °F 64.4 °F 83% 29.96 in 7.0 mi SSE 12.7 mph - N/A   Scattered Clouds
10:50 AM 71.6 °F 66.2 °F 83% 29.99 in 7.0 mi SSE 17.3 mph - N/A   Scattered Clouds
11:50 AM 71.6 °F 66.2 °F 83% 29.98 in 7.0 mi SSE 11.5 mph - N/A   Scattered Clouds
12:50 PM 73.4 °F 66.2 °F 78% 29.98 in 7.0 mi SSE 19.6 mph - N/A   Mostly Cloudy
1:50 PM 73.4 °F 64.4 °F 73% 29.96 in 7.0 mi SSE 19.6 mph - N/A   Mostly Cloudy
2:48 PM 73.4 °F 66.2 °F 78% 29.93 in 7.0 mi SSE 21.9 mph - N/A   Mostly Cloudy
3:48 PM 73.4 °F 66.2 °F 78% 29.91 in 7.0 mi SSE 16.1 mph - N/A   Mostly Cloudy
4:48 PM 73.4 °F 66.2 °F 78% 29.89 in 7.0 mi SSE 16.1 mph - N/A   Mostly Cloudy
5:53 PM 71.6 °F 66.2 °F 83% 29.89 in 7.0 mi SSE 16.1 mph - N/A   Mostly Cloudy
6:48 PM 71.6 °F 64.4 °F 78% 29.88 in 7.0 mi SE 19.6 mph - N/A   Scattered Clouds
7:15 PM 69.8 °F 65.3 °F 86% 29.88 in 5.0 mi SSE 11.5 mph - N/A   Haze
7:35 PM 69.3 °F 65.3 °F 87% 29.88 in 7.0 mi SE 9.2 mph - N/A   Scattered Clouds
7:55 PM 68.9 °F 65.3 °F 88% 29.88 in 7.0 mi SE 10.4 mph 16.1 mph N/A   Scattered Clouds
8:15 PM 68.5 °F 65.7 °F 90% 29.89 in 7.0 mi SE 8.1 mph - N/A   Mostly Cloudy
8:35 PM 68.7 °F 65.7 °F 90% 29.89 in 7.0 mi SE 9.2 mph 16.1 mph N/A   Mostly Cloudy
8:55 PM 68.4 °F 65.5 °F 90% 29.89 in 7.0 mi SE 8.1 mph - N/A   Mostly Cloudy
9:15 PM 68.2 °F 65.3 °F 90% 29.89 in 7.0 mi SSE 11.5 mph 16.1 mph N/A   Scattered Clouds
9:35 PM 68.2 °F 65.5 °F 91% 29.90 in 7.0 mi SSE 8.1 mph - N/A   Scattered Clouds
9:55 PM 68.0 °F 65.7 °F 92% 29.89 in 7.0 mi SSE 9.2 mph - N/A   Scattered Clouds
10:15 PM 68.0 °F 65.8 °F 93% 29.89 in 5.0 mi SSE 8.1 mph - N/A   Scattered Clouds
10:35 PM 68.2 °F 66.2 °F 93% 29.90 in 7.0 mi SSE 9.2 mph - N/A   Mostly Cloudy
10:55 PM 67.8 °F 66.0 °F 94% 29.89 in 5.0 mi SE 9.2 mph - N/A   Overcast
11:15 PM 67.6 °F 66.0 °F 95% 29.90 in 7.0 mi South 4.6 mph - N/A   Mostly Cloudy
11:35 PM 68.2 °F 66.0 °F 93% 29.91 in 7.0 mi SSE 6.9 mph - N/A   Overcast
11:55 PM 68.2 °F 66.2 °F 93% 29.90 in 7.0 mi SSE 5.8 mph - N/A   Overcast
12:15 AM 68.0 °F 66.2 °F 94% 29.91 in 7.0 mi South 6.9 mph - N/A   Overcast
12:35 AM 67.6 °F 66.2 °F 95% 29.90 in 7.0 mi SSE 8.1 mph - N/A   Mostly Cloudy
12:55 AM 67.6 °F 66.2 °F 95% 29.90 in 7.0 mi SSE 8.1 mph - N/A   Mostly Cloudy